Flag for Canada Weather past 2 weeks in MD of Lunenburg, Nova Scotia, Canada

Now
69 °F

Mild.


Feels Like: 69 °F
Forecast: 58 / 77 °F
Wind: 13 mph from South

Location: McNabs Island - AUT

Current Time: Aug 3, 2015 at 12:48:00 PM

Latest Report: Aug 3, 2015 at 12:00 PM


Visibility: N/A

Pressure: 29.94 "Hg

Humidity: 77%

Dew point: 61 °F

Location of MD of LunenburgLocation

Historic Weather in MD of Lunenburg — Graph

°F

MD of Lunenburg temperature yesterday

Maximum temperature yesterday: 79 °F (at 11:00 AM)
Minimum temperature yesterday: 62 °F (at 7:00 AM)
Average temperature yesterday: 70 °F

Past Weeks' High & Low Weather Summary

 TemperatureHumidityPressure
High80 °F (Jul 29, 5:00 PM)100% (Jul 19, 8:00 PM)30.14 "Hg (Jul 19, 8:00 PM)
Low57 °F (Jul 25, 4:00 AM)43% (Jul 29, 5:00 PM)29.50 "Hg (Jul 22, 5:00 PM)
Average65 °F87%29.83 "Hg
* Reported Jul 19 11:00 AM — Aug 3 11:00 AM, MD of Lunenburg, Weather by CustomWeather, © 2015

Note: Actual official high and low records may vary slightly from our data, if they occured in-between our weather recording intervals... More about our weather records

Advertising

MD of Lunenburg weather history for previous 24 hours

 ConditionsComfort  
Time TempWeatherWind HumidityBarometerVisibility
11:00 AM
Mon, Aug 3
69 °FMild.8 mph78%29.95 "HgN/A
10:00 AM68 °FMild.7 mph84%29.96 "HgN/A
9:00 AM69 °FMild.2 mph80%29.95 "HgN/A
8:00 AM65 °FMild.No wind80%29.95 "HgN/A
7:00 AM62 °FCool.6 mph91%29.94 "HgN/A
6:00 AM61 °FCool.6 mph94%29.94 "HgN/A
5:00 AM60 °FCool.1 mph95%29.91 "HgN/A
4:00 AM60 °FCool.1 mph95%29.89 "HgN/A
3:00 AM61 °FCool.No wind96%29.90 "HgN/A
2:00 AM61 °FCool.2 mph92%29.90 "HgN/A
1:00 AM60 °FCool.1 mph99%29.89 "HgN/A
12:00 AM64 °FMild.2 mph89%29.88 "HgN/A
11:00 PM
Sun, Aug 2
62 °FCool.2 mph93%29.87 "HgN/A
10:00 PM64 °FMild.2 mph85%29.86 "HgN/A
9:00 PM66 °FMild.5 mph81%29.85 "HgN/A
8:00 PM69 °FMild.20 mph73%29.83 "HgN/A
7:00 PM72 °FMild.22 mph65%29.80 "HgN/A
6:00 PM74 °FMild.20 mph62%29.80 "HgN/A
5:00 PM76 °FMild.20 mph59%29.80 "HgN/A
4:00 PM78 °FWarm.15 mph55%29.79 "HgN/A
3:00 PM78 °FWarm.16 mph54%29.79 "HgN/A
2:00 PM79 °FWarm.18 mph51%29.79 "HgN/A
1:00 PM77 °FMild.16 mph56%29.78 "HgN/A
12:00 PM78 °FWarm.15 mph49%29.78 "HgN/A
Weather by CustomWeather, © 2015

See weather overviewHow to use our weather pages